QPF
0.00 0.00 0.00 0.00 0.00 0.00 0.01 0.01 0.00 0.02 0.02 0.03 0.04 0.05 0.07 0.07 0.10 0.12 0.10 0.06 0.03 0.02 0.02 0.02 0.02 0.01 0.01 0.02 0.03 0.02 0.02 0.01 0.00 0.00 0.00 0.00 0.00 0.00 0.00 0.00 0.00 0.00 0.00
0.00 0.00 0.00 0.00 0.00 0.00 0.01 0.02 0.02 0.02 0.01 0.01 0.02 0.03 0.05 0.06 0.06 0.09 0.10 0.07 0.05 0.05 0.04 0.02 0.02 0.02 0.02 0.02 0.03 0.04 0.04 0.04 0.02 0.01 0.00 0.00 0.00 0.00 0.00 0.00 0.00 0.00 0.00
0.00 0.00 0.00 0.00 0.00 0.00 0.01 0.03 0.03 0.02 0.01 0.01 0.02 0.03 0.04 0.04 0.05 0.07 0.10 0.10 0.09 0.07 0.06 0.04 0.03 0.02 0.01 0.03 0.06 0.06 0.07 0.07 0.04 0.03 0.02 0.00 0.00 0.00 0.00 0.00 0.00 0.00 0.00
0.00 0.00 0.00 0.01 0.01 0.00 0.01 0.01 0.03 0.02 0.01 0.00 0.01 0.02 0.02 0.02 0.03 0.07 0.12 0.14 0.14 0.11 0.08 0.05 0.03 0.02 0.02 0.04 0.08 0.12 0.12 0.09 0.06 0.04 0.03 0.01 0.00 0.00 0.00 0.00 0.00 0.00 0.00
0.01 0.01 0.00 0.01 0.01 0.01 0.01 0.01 0.01 0.02 0.01 0.01 0.01 0.01 0.01 0.01 0.03 0.04 0.06 0.09 0.12 0.13 0.11 0.06 0.04 0.05 0.05 0.05 0.06 0.09 0.13 0.10 0.06 0.04 0.03 0.01 0.00 0.00 0.00 0.00 0.00 0.00 0.00
0.02 0.02 0.02 0.01 0.01 0.01 0.01 0.02 0.02 0.02 0.02 0.01 0.01 0.01 0.01 0.01 0.04 0.08 0.09 0.07 0.06 0.06 0.04 0.04 0.07 0.10 0.08 0.04 0.04 0.06 0.08 0.08 0.07 0.06 0.04 0.01 0.00 0.00 0.00 0.00 0.00 0.00 0.00
0.09 0.09 0.06 0.04 0.03 0.02 0.03 0.05 0.06 0.06 0.04 0.03 0.02 0.01 0.01 0.02 0.04 0.07 0.08 0.07 0.07 0.05 0.04 0.04 0.07 0.09 0.11 0.06 0.03 0.03 0.04 0.04 0.06 0.07 0.05 0.02 0.01 0.00 0.00 0.00 0.00 0.00 0.00
0.18 0.20 0.14 0.07 0.08 0.08 0.08 0.08 0.10 0.08 0.06 0.06 0.04 0.02 0.00 0.01 0.02 0.03 0.03 0.05 0.08 0.10 0.08 0.07 0.08 0.06 0.06 0.07 0.07 0.05 0.04 0.04 0.04 0.03 0.04 0.05 0.04 0.02 0.00 0.00 0.00 0.00 0.00
0.11 0.17 0.17 0.14 0.15 0.17 0.16 0.16 0.13 0.09 0.08 0.05 0.03 0.01 0.00 0.00 0.00 0.01 0.02 0.04 0.06 0.10 0.09 0.06 0.04 0.03 0.04 0.05 0.10 0.13 0.08 0.06 0.10 0.10 0.08 0.06 0.04 0.02 0.00 0.00 0.00 0.00 0.00
0.06 0.10 0.15 0.16 0.18 0.21 0.24 0.26 0.18 0.13 0.12 0.06 0.02 0.01 0.00 0.00 0.00 0.01 0.01 0.02 0.02 0.04 0.07 0.09 0.09 0.06 0.06 0.06 0.06 0.10 0.12 0.12 0.11 0.13 0.12 0.08 0.03 0.01 0.00 0.00 0.00 0.00 0.00
0.02 0.03 0.06 0.10 0.15 0.21 0.24 0.22 0.17 0.14 0.10 0.05 0.02 0.00 0.00 0.00 0.00 0.01 0.01 0.00 0.01 0.02 0.06 0.13 0.16 0.11 0.08 0.07 0.06 0.06 0.07 0.12 0.16 0.15 0.17 0.13 0.07 0.02 0.01 0.00 0.00 0.00 0.00
0.00 0.01 0.02 0.04 0.06 0.11 0.15 0.17 0.16 0.15 0.10 0.04 0.02 0.01 0.00 0.00 0.00 0.01 0.01 0.00 0.00 0.01 0.02 0.05 0.07 0.08 0.07 0.06 0.05 0.04 0.02 0.02 0.04 0.08 0.09 0.08 0.07 0.06 0.04 0.03 0.02 0.01 0.00
0.00 0.00 0.00 0.00 0.01 0.04 0.10 0.13 0.14 0.16 0.14 0.09 0.05 0.02 0.01 0.00 0.00 0.01 0.03 0.02 0.01 0.00 0.01 0.01 0.02 0.02 0.02 0.02 0.03 0.03 0.02 0.01 0.01 0.03 0.04 0.05 0.06 0.08 0.08 0.07 0.04 0.01 0.00
0.00 0.00 0.00 0.00 0.00 0.01 0.03 0.09 0.15 0.14 0.08 0.03 0.02 0.01 0.00 0.01 0.00 0.00 0.02 0.03 0.02 0.01 0.00 0.00 0.00 0.01 0.01 0.01 0.01 0.01 0.01 0.00 0.00 0.01 0.02 0.05 0.06 0.06 0.07 0.07 0.06 0.04 0.01
0.00 0.00 0.00 0.00 0.00 0.00 0.01 0.05 0.09 0.09 0.04 0.01 0.00 0.00 0.00 0.01 0.01 0.01 0.01 0.01 0.02 0.01 0.00 0.00 0.00 0.00 0.00 0.00 0.00 0.00 0.00 0.00 0.01 0.01 0.01 0.03 0.05 0.07 0.09 0.08 0.07 0.06 0.05
0.00 0.00 0.00 0.00 0.00 0.00 0.00 0.02 0.03 0.03 0.02 0.01 0.01 0.02 0.03 0.03 0.04 0.03 0.02 0.01 0.01 0.01 0.00 0.00 0.00 0.00 0.00 0.00 0.00 0.00 0.00 0.00 0.02 0.04 0.06 0.07 0.08 0.09 0.10 0.11 0.09 0.08 0.07
0.00 0.00 0.00 0.00 0.00 0.00 0.00 0.00 0.01 0.01 0.00 0.00 0.00 0.01 0.03 0.03 0.04 0.05 0.04 0.02 0.01 0.01 0.01 0.01 0.01 0.00 0.00 0.00 0.00 0.00 0.00 0.00 0.01 0.04 0.14 0.20 0.18 0.19 0.22 0.24 0.23 0.19 0.15
0.00 0.00 0.00 0.00 0.00 0.00 0.00 0.00 0.01 0.00 0.00 0.00 0.00 0.01 0.01 0.01 0.01 0.02 0.03 0.02 0.01 0.01 0.01 0.01 0.00 0.00 0.00 0.00 0.00 0.00 0.00 0.01 0.01 0.01 0.05 0.12 0.22 0.27 0.33 0.35 0.38 0.39 0.35
0.00 0.00 0.00 0.00 0.00 0.00 0.00 0.00 0.01 0.01 0.01 0.00 0.00 0.00 0.00 0.00 0.00 0.01 0.01 0.00 0.00 0.00 0.00 0.00 0.00 0.00 0.00 0.00 0.00 0.00 0.00 0.00 0.00 0.01 0.01 0.04 0.09 0.17 0.28 0.35 0.37 0.39 0.36
0.00 0.00 0.00 0.00 0.00 0.01 0.00 0.00 0.00 0.00 0.01 0.00 0.00 0.00 0.00 0.00 0.00 0.00 0.00 0.00 0.00 0.00 0.00 0.00 0.00 0.00 0.00 0.00 0.00 0.00 0.00 0.00 0.00 0.02 0.05 0.08 0.12 0.14 0.14 0.20 0.25 0.24 0.20
0.00 0.00 0.00 0.00 0.00 0.00 0.00 0.00 0.00 0.00 0.00 0.00 0.00 0.00 0.00 0.00 0.00 0.00 0.00 0.00 0.00 0.00 0.00 0.00 0.00 0.00 0.00 0.00 0.00 0.00 0.00 0.00 0.00 0.01 0.03 0.08 0.13 0.18 0.17 0.14 0.13 0.12 0.11
0.00 0.00 0.00 0.00 0.00 0.01 0.01 0.00 0.00 0.00 0.00 0.00 0.00 0.00 0.00 0.00 0.00 0.00 0.00 0.00 0.01 0.01 0.01 0.01 0.01 0.00 0.00 0.01 0.01 0.01 0.01 0.01 0.01 0.01 0.01 0.01 0.04 0.08 0.13 0.15 0.14 0.11 0.08
0.00 0.00 0.00 0.00 0.01 0.01 0.01 0.00 0.00 0.00 0.00 0.00 0.00 0.00 0.00 0.00 0.00 0.00 0.00 0.00 0.00 0.00 0.01 0.02 0.02 0.02 0.03 0.03 0.02 0.02 0.02 0.01 0.01 0.02 0.02 0.02 0.01 0.01 0.02 0.04 0.06 0.07 0.06
0.00 0.00 0.00 0.00 0.00 0.00 0.00 0.00 0.00 0.00 0.00 0.00 0.00 0.00 0.00 0.00 0.00 0.00 0.00 0.00 0.00 0.00 0.00 0.01 0.02 0.03 0.06 0.07 0.07 0.06 0.05 0.03 0.01 0.01 0.04 0.05 0.05 0.04 0.03 0.02 0.02 0.03 0.04
0.00 0.00 0.00 0.00 0.00 0.00 0.00 0.00 0.00 0.00 0.00 0.00 0.00 0.00 0.00 0.00 0.00 0.00 0.00 0.00 0.00 0.00 0.00 0.00 0.01 0.03 0.05 0.09 0.11 0.08 0.07 0.05 0.02 0.01 0.01 0.03 0.04 0.04 0.03 0.02 0.02 0.02 0.02
0.00 0.00 0.00 0.00 0.00 0.00 0.00 0.00 0.00 0.00 0.00 0.00 0.00 0.00 0.00 0.00 0.00 0.01 0.01 0.01 0.01 0.00 0.00 0.01 0.01 0.01 0.03 0.07 0.12 0.13 0.10 0.05 0.04 0.04 0.02 0.02 0.02 0.03 0.04 0.02 0.02 0.02 0.03
MSLP
1009.86 1010.17 1010.48 1010.76 1010.98 1011.15 1011.28 1011.39 1011.52 1011.70 1011.93 1012.23 1012.59 1012.96 1013.34 1013.67 1013.97 1014.20 1014.39 1014.55 1014.70 1014.88 1015.09 1015.35 1015.66 1016.00 1016.38 1016.77 1017.18 1017.61 1018.05 1018.52 1018.99 1019.48 1019.96 1020.41 1020.81 1021.12 1021.34 1021.46 1021.48 1021.42 1021.30
1009.75 1010.07 1010.38 1010.66 1010.89 1011.07 1011.22 1011.36 1011.50 1011.68 1011.91 1012.18 1012.49 1012.83 1013.15 1013.43 1013.68 1013.88 1014.03 1014.16 1014.29 1014.43 1014.60 1014.82 1015.08 1015.38 1015.72 1016.09 1016.50 1016.94 1017.41 1017.93 1018.47 1019.03 1019.60 1020.13 1020.61 1021.01 1021.32 1021.52 1021.62 1021.64 1021.60
1009.53 1009.87 1010.19 1010.49 1010.73 1010.94 1011.11 1011.27 1011.43 1011.61 1011.82 1012.07 1012.34 1012.62 1012.89 1013.12 1013.32 1013.48 1013.61 1013.72 1013.82 1013.95 1014.10 1014.29 1014.52 1014.80 1015.11 1015.47 1015.86 1016.31 1016.80 1017.34 1017.92 1018.53 1019.15 1019.74 1020.29 1020.76 1021.14 1021.42 1021.61 1021.72 1021.76
1009.21 1009.56 1009.90 1010.21 1010.48 1010.71 1010.91 1011.09 1011.27 1011.46 1011.67 1011.90 1012.14 1012.37 1012.59 1012.78 1012.93 1013.05 1013.15 1013.24 1013.33 1013.45 1013.59 1013.77 1013.99 1014.25 1014.55 1014.89 1015.27 1015.70 1016.19 1016.72 1017.31 1017.93 1018.57 1019.20 1019.79 1020.32 1020.77 1021.13 1021.41 1021.61 1021.75
1008.79 1009.16 1009.51 1009.83 1010.11 1010.37 1010.59 1010.80 1011.01 1011.22 1011.44 1011.66 1011.88 1012.09 1012.27 1012.41 1012.53 1012.62 1012.69 1012.76 1012.85 1012.96 1013.10 1013.28 1013.49 1013.74 1014.02 1014.34 1014.70 1015.10 1015.55 1016.06 1016.62 1017.22 1017.84 1018.48 1019.09 1019.66 1020.18 1020.62 1021.00 1021.31 1021.56
1008.36 1008.71 1009.05 1009.37 1009.66 1009.93 1010.18 1010.42 1010.66 1010.90 1011.14 1011.38 1011.59 1011.78 1011.94 1012.06 1012.15 1012.21 1012.27 1012.32 1012.40 1012.50 1012.65 1012.82 1013.03 1013.26 1013.52 1013.81 1014.13 1014.49 1014.89 1015.34 1015.85 1016.40 1016.99 1017.61 1018.23 1018.84 1019.41 1019.93 1020.41 1020.82 1021.19
1007.98 1008.29 1008.60 1008.90 1009.17 1009.44 1009.71 1009.98 1010.25 1010.53 1010.80 1011.05 1011.28 1011.48 1011.63 1011.73 1011.80 1011.85 1011.88 1011.93 1011.99 1012.09 1012.23 1012.40 1012.60 1012.83 1013.07 1013.32 1013.59 1013.90 1014.23 1014.62 1015.05 1015.54 1016.09 1016.67 1017.29 1017.91 1018.53 1019.13 1019.70 1020.22 1020.70
1007.72 1007.97 1008.22 1008.47 1008.71 1008.97 1009.23 1009.52 1009.82 1010.12 1010.43 1010.72 1010.97 1011.17 1011.33 1011.43 1011.49 1011.53 1011.55 1011.59 1011.65 1011.74 1011.88 1012.04 1012.23 1012.44 1012.66 1012.89 1013.12 1013.37 1013.64 1013.96 1014.32 1014.74 1015.22 1015.77 1016.36 1017.00 1017.65 1018.30 1018.95 1019.57 1020.14
1007.62 1007.80 1007.97 1008.15 1008.34 1008.56 1008.82 1009.10 1009.41 1009.74 1010.07 1010.38 1010.66 1010.88 1011.04 1011.15 1011.21 1011.24 1011.27 1011.30 1011.35 1011.45 1011.58 1011.75 1011.94 1012.15 1012.35 1012.56 1012.76 1012.97 1013.18 1013.43 1013.73 1014.09 1014.51 1015.01 1015.58 1016.20 1016.86 1017.55 1018.25 1018.93 1019.57
1007.70 1007.78 1007.87 1007.97 1008.11 1008.28 1008.50 1008.77 1009.08 1009.41 1009.75 1010.08 1010.36 1010.60 1010.77 1010.89 1010.96 1010.99 1011.02 1011.06 1011.12 1011.23 1011.37 1011.55 1011.75 1011.96 1012.17 1012.37 1012.55 1012.73 1012.91 1013.12 1013.36 1013.66 1014.02 1014.47 1014.99 1015.58 1016.23 1016.92 1017.63 1018.34 1019.02
1007.91 1007.92 1007.93 1007.96 1008.03 1008.15 1008.32 1008.56 1008.84 1009.16 1009.50 1009.82 1010.11 1010.34 1010.53 1010.65 1010.73 1010.78 1010.82 1010.88 1010.96 1011.08 1011.24 1011.44 1011.66 1011.89 1012.12 1012.33 1012.52 1012.69 1012.85 1013.03 1013.22 1013.47 1013.78 1014.16 1014.62 1015.16 1015.77 1016.42 1017.11 1017.80 1018.48
1008.21 1008.15 1008.10 1008.08 1008.09 1008.16 1008.30 1008.49 1008.74 1009.03 1009.33 1009.64 1009.91 1010.14 1010.32 1010.45 1010.54 1010.61 1010.67 1010.75 1010.86 1011.01 1011.20 1011.43 1011.68 1011.94 1012.20 1012.43 1012.63 1012.81 1012.97 1013.12 1013.29 1013.48 1013.73 1014.05 1014.43 1014.90 1015.43 1016.02 1016.65 1017.29 1017.93
1008.51 1008.43 1008.36 1008.30 1008.28 1008.32 1008.41 1008.57 1008.77 1009.01 1009.28 1009.54 1009.78 1009.99 1010.16 1010.29 1010.40 1010.49 1010.58 1010.69 1010.83 1011.02 1011.24 1011.51 1011.79 1012.08 1012.36 1012.62 1012.84 1013.03 1013.19 1013.33 1013.46 1013.61 1013.80 1014.04 1014.34 1014.71 1015.15 1015.65 1016.19 1016.76 1017.34
1008.78 1008.71 1008.64 1008.58 1008.56 1008.58 1008.64 1008.76 1008.92 1009.11 1009.32 1009.54 1009.74 1009.92 1010.08 1010.21 1010.32 1010.43 1010.55 1010.69 1010.87 1011.09 1011.35 1011.64 1011.95 1012.27 1012.57 1012.84 1013.07 1013.26 1013.41 1013.54 1013.64 1013.75 1013.87 1014.04 1014.25 1014.52 1014.85 1015.24 1015.69 1016.17 1016.69
1008.96 1008.93 1008.90 1008.88 1008.87 1008.89 1008.95 1009.03 1009.15 1009.30 1009.46 1009.63 1009.79 1009.94 1010.07 1010.20 1010.32 1010.45 1010.59 1010.76 1010.97 1011.21 1011.49 1011.80 1012.11 1012.43 1012.73 1013.01 1013.23 1013.42 1013.56 1013.66 1013.73 1013.79 1013.86 1013.95 1014.08 1014.26 1014.49 1014.79 1015.14 1015.55 1015.99
1009.07 1009.10 1009.12 1009.15 1009.18 1009.22 1009.28 1009.35 1009.45 1009.55 1009.66 1009.78 1009.91 1010.03 1010.15 1010.27 1010.39 1010.53 1010.70 1010.89 1011.11 1011.36 1011.64 1011.93 1012.24 1012.54 1012.82 1013.06 1013.27 1013.43 1013.54 1013.61 1013.66 1013.68 1013.70 1013.73 1013.80 1013.91 1014.07 1014.29 1014.57 1014.91 1015.31
1009.10 1009.20 1009.29 1009.38 1009.46 1009.53 1009.60 1009.67 1009.75 1009.83 1009.90 1009.99 1010.08 1010.17 1010.28 1010.39 1010.52 1010.67 1010.84 1011.04 1011.26 1011.50 1011.76 1012.03 1012.29 1012.55 1012.78 1012.98 1013.15 1013.27 1013.35 1013.40 1013.41 1013.41 1013.40 1013.41 1013.44 1013.51 1013.62 1013.80 1014.04 1014.34 1014.70
1009.09 1009.25 1009.41 1009.55 1009.68 1009.79 1009.88 1009.96 1010.03 1010.09 1010.15 1010.21 1010.27 1010.35 1010.44 1010.55 1010.68 1010.84 1011.01 1011.20 1011.40 1011.62 1011.84 1012.06 1012.27 1012.46 1012.63 1012.77 1012.89 1012.96 1013.01 1013.03 1013.04 1013.03 1013.02 1013.02 1013.04 1013.11 1013.22 1013.38 1013.60 1013.89 1014.23
1009.06 1009.27 1009.48 1009.67 1009.84 1009.99 1010.10 1010.19 1010.26 1010.32 1010.36 1010.41 1010.47 1010.54 1010.62 1010.73 1010.86 1011.01 1011.17 1011.34 1011.52 1011.70 1011.86 1012.02 1012.16 1012.28 1012.38 1012.46 1012.52 1012.56 1012.58 1012.59 1012.59 1012.59 1012.60 1012.63 1012.68 1012.77 1012.89 1013.07 1013.29 1013.58 1013.92
1009.03 1009.28 1009.52 1009.75 1009.95 1010.12 1010.26 1010.36 1010.44 1010.50 1010.55 1010.59 1010.65 1010.72 1010.80 1010.91 1011.03 1011.17 1011.31 1011.46 1011.59 1011.72 1011.83 1011.91 1011.98 1012.03 1012.07 1012.09 1012.10 1012.10 1012.11 1012.12 1012.14 1012.17 1012.22 1012.28 1012.38 1012.51 1012.67 1012.87 1013.12 1013.41 1013.74
1009.00 1009.28 1009.54 1009.80 1010.02 1010.22 1010.37 1010.49 1010.58 1010.64 1010.70 1010.75 1010.80 1010.88 1010.96 1011.07 1011.18 1011.30 1011.42 1011.53 1011.62 1011.69 1011.74 1011.76 1011.76 1011.74 1011.72 1011.69 1011.66 1011.65 1011.65 1011.67 1011.72 1011.78 1011.88 1011.99 1012.14 1012.31 1012.52 1012.75 1013.02 1013.31 1013.64
1008.99 1009.28 1009.57 1009.83 1010.07 1010.28 1010.44 1010.58 1010.68 1010.75 1010.82 1010.88 1010.95 1011.02 1011.10 1011.20 1011.30 1011.40 1011.48 1011.55 1011.60 1011.61 1011.61 1011.57 1011.51 1011.44 1011.37 1011.30 1011.25 1011.23 1011.23 1011.26 1011.33 1011.43 1011.57 1011.73 1011.92 1012.13 1012.37 1012.62 1012.90 1013.19 1013.50
1008.99 1009.30 1009.59 1009.87 1010.11 1010.33 1010.51 1010.65 1010.76 1010.85 1010.93 1011.00 1011.07 1011.15 1011.23 1011.31 1011.39 1011.46 1011.51 1011.54 1011.54 1011.51 1011.45 1011.36 1011.26 1011.15 1011.04 1010.95 1010.88 1010.84 1010.84 1010.89 1010.97 1011.09 1011.25 1011.44 1011.65 1011.89 1012.13 1012.40 1012.67 1012.95 1013.24
1009.02 1009.34 1009.64 1009.92 1010.17 1010.39 1010.58 1010.73 1010.85 1010.96 1011.04 1011.12 1011.20 1011.28 1011.35 1011.42 1011.47 1011.52 1011.53 1011.53 1011.48 1011.41 1011.30 1011.18 1011.04 1010.89 1010.76 1010.64 1010.55 1010.51 1010.50 1010.54 1010.62 1010.74 1010.90 1011.09 1011.29 1011.52 1011.77 1012.02 1012.27 1012.53 1012.80
1009.06 1009.39 1009.70 1009.99 1010.24 1010.47 1010.66 1010.82 1010.96 1011.07 1011.17 1011.26 1011.34 1011.41 1011.48 1011.53 1011.57 1011.59 1011.57 1011.53 1011.45 1011.34 1011.20 1011.04 1010.87 1010.70 1010.54 1010.41 1010.30 1010.23 1010.21 1010.22 1010.28 1010.38 1010.50 1010.66 1010.84 1011.04 1011.26 1011.48 1011.71 1011.95 1012.19
1009.12 1009.47 1009.78 1010.07 1010.33 1010.56 1010.76 1010.92 1011.07 1011.20 1011.31 1011.41 1011.50 1011.58 1011.64 1011.68 1011.70 1011.69 1011.66 1011.58 1011.48 1011.34 1011.18 1011.00 1010.81 1010.62 1010.45 1010.29 1010.16 1010.06 1010.00 1009.97 1009.98 1010.03 1010.11 1010.21 1010.34 1010.49 1010.66 1010.85 1011.05 1011.27 1011.49
Thickness
5694 5691 5688 5685 5683 5681 5679 5678 5675 5673 5671 5669 5668 5667 5666 5667 5666 5667 5668 5669 5669 5671 5671 5672 5672 5673 5672 5672 5672 5672 5670 5668 5662 5659 5658 5658 5657 5657 5656 5656 5658 5661 5663
5690 5687 5684 5681 5678 5675 5674 5672 5671 5668 5667 5665 5664 5663 5663 5663 5662 5662 5662 5663 5665 5667 5668 5669 5669 5669 5668 5669 5668 5668 5667 5666 5662 5657 5655 5653 5652 5652 5650 5650 5651 5654 5655
5686 5683 5680 5678 5675 5672 5670 5668 5666 5663 5662 5661 5660 5658 5658 5657 5657 5657 5657 5658 5660 5662 5664 5665 5666 5665 5664 5665 5665 5664 5664 5663 5661 5657 5653 5649 5647 5646 5644 5644 5645 5646 5648
5684 5680 5678 5675 5673 5670 5667 5664 5661 5659 5657 5656 5655 5655 5654 5654 5654 5655 5655 5655 5656 5659 5661 5662 5662 5662 5663 5663 5662 5662 5660 5658 5657 5654 5650 5647 5645 5643 5641 5639 5638 5640 5641
5681 5678 5676 5673 5670 5667 5663 5661 5658 5655 5654 5652 5651 5650 5650 5650 5651 5651 5651 5652 5653 5655 5657 5658 5660 5661 5662 5662 5662 5661 5658 5656 5654 5651 5649 5647 5644 5642 5641 5639 5637 5635 5635
5677 5675 5672 5669 5665 5662 5660 5657 5654 5651 5650 5649 5647 5647 5648 5649 5650 5650 5650 5650 5651 5652 5654 5655 5656 5658 5659 5660 5661 5661 5660 5658 5655 5653 5651 5649 5649 5647 5643 5639 5635 5632 5632
5673 5670 5667 5663 5661 5658 5655 5651 5650 5648 5647 5646 5646 5646 5646 5647 5648 5649 5649 5649 5649 5650 5650 5651 5653 5655 5656 5657 5659 5660 5660 5660 5660 5658 5655 5655 5653 5652 5646 5639 5636 5634 5634
5669 5665 5662 5659 5656 5654 5650 5647 5645 5643 5642 5641 5641 5641 5641 5641 5644 5646 5646 5646 5646 5647 5647 5648 5648 5650 5651 5652 5654 5655 5656 5657 5658 5659 5659 5659 5657 5655 5650 5647 5639 5630 5625
5663 5659 5656 5654 5651 5648 5644 5642 5640 5637 5635 5634 5634 5634 5634 5635 5638 5639 5640 5640 5641 5642 5643 5644 5644 5644 5646 5647 5648 5649 5650 5652 5654 5655 5654 5652 5652 5651 5647 5641 5633 5628 5623
5655 5652 5650 5648 5647 5644 5641 5636 5634 5631 5630 5628 5628 5629 5629 5629 5632 5633 5634 5633 5633 5634 5636 5637 5639 5640 5641 5642 5642 5643 5643 5645 5646 5647 5646 5645 5645 5646 5645 5643 5638 5631 5624
5646 5644 5642 5641 5640 5639 5635 5631 5628 5625 5623 5622 5622 5622 5622 5623 5625 5628 5628 5627 5628 5628 5629 5630 5632 5634 5635 5635 5635 5635 5636 5638 5640 5640 5639 5638 5638 5640 5640 5638 5636 5633 5629
5636 5634 5632 5631 5630 5629 5625 5621 5619 5616 5614 5613 5613 5614 5615 5616 5618 5620 5622 5623 5623 5623 5624 5626 5627 5628 5628 5628 5627 5628 5630 5631 5632 5633 5634 5633 5633 5634 5634 5632 5630 5628 5627
5627 5624 5622 5621 5619 5617 5614 5610 5607 5606 5605 5604 5604 5605 5606 5609 5611 5614 5617 5618 5619 5618 5619 5621 5621 5622 5622 5621 5621 5622 5623 5622 5622 5624 5626 5628 5628 5628 5626 5624 5622 5621 5619
5621 5618 5615 5612 5609 5605 5602 5599 5595 5593 5594 5595 5596 5597 5599 5602 5605 5607 5610 5612 5613 5612 5612 5613 5614 5613 5613 5613 5613 5614 5614 5614 5614 5615 5617 5619 5621 5621 5621 5620 5616 5614 5612
5616 5613 5610 5606 5602 5597 5593 5588 5585 5583 5585 5587 5588 5590 5592 5596 5601 5603 5605 5606 5606 5605 5604 5604 5604 5604 5605 5605 5605 5606 5607 5607 5609 5610 5612 5613 5614 5615 5615 5614 5612 5609 5608
5613 5610 5606 5603 5599 5594 5590 5584 5579 5579 5581 5583 5585 5587 5590 5594 5598 5600 5602 5602 5602 5601 5599 5598 5598 5598 5598 5599 5599 5600 5600 5602 5603 5605 5608 5610 5611 5611 5611 5608 5607 5607 5606
5612 5608 5604 5601 5598 5594 5590 5586 5582 5579 5579 5581 5583 5586 5588 5591 5594 5597 5598 5597 5596 5595 5593 5593 5593 5593 5593 5594 5594 5594 5596 5597 5598 5600 5602 5605 5606 5607 5607 5605 5603 5603 5602
5611 5609 5605 5601 5598 5594 5591 5588 5585 5583 5581 5581 5581 5583 5585 5587 5589 5591 5591 5590 5589 5588 5588 5588 5588 5589 5589 5588 5588 5588 5589 5589 5591 5594 5597 5598 5599 5600 5599 5599 5599 5597 5595
5611 5607 5605 5602 5599 5596 5593 5591 5588 5586 5583 5581 5581 5581 5581 5582 5583 5584 5584 5585 5584 5583 5583 5583 5584 5584 5584 5583 5582 5582 5582 5582 5584 5586 5588 5590 5591 5591 5592 5592 5592 5592 5591
5611 5609 5606 5602 5599 5597 5594 5592 5589 5586 5584 5581 5580 5579 5579 5579 5579 5579 5579 5579 5578 5578 5579 5579 5579 5579 5578 5577 5577 5576 5576 5576 5576 5577 5578 5579 5581 5582 5584 5586 5587 5588 5587
5612 5609 5606 5602 5599 5597 5595 5592 5589 5586 5583 5580 5579 5578 5577 5576 5575 5575 5575 5575 5575 5575 5575 5575 5575 5574 5573 5573 5572 5571 5570 5569 5569 5568 5569 5570 5572 5574 5576 5578 5580 5581 5579
5612 5608 5605 5602 5600 5598 5595 5592 5588 5585 5583 5581 5579 5578 5577 5575 5575 5574 5573 5573 5573 5572 5572 5572 5572 5571 5571 5570 5569 5568 5567 5566 5565 5564 5563 5564 5565 5567 5568 5569 5570 5571 5570
5614 5610 5606 5603 5600 5599 5594 5591 5588 5585 5583 5582 5579 5577 5576 5575 5574 5573 5573 5572 5571 5570 5569 5569 5569 5569 5569 5568 5568 5567 5566 5565 5563 5562 5561 5560 5560 5561 5562 5563 5564 5564 5563
5618 5613 5608 5605 5602 5599 5596 5592 5590 5588 5586 5584 5581 5579 5577 5575 5574 5573 5573 5572 5571 5570 5569 5568 5567 5566 5567 5567 5567 5566 5566 5565 5563 5562 5561 5560 5559 5559 5559 5560 5560 5559 5558
5621 5616 5612 5608 5605 5601 5598 5595 5593 5590 5588 5586 5585 5582 5579 5578 5576 5576 5575 5574 5573 5571 5570 5569 5567 5566 5566 5566 5567 5567 5567 5566 5564 5563 5562 5561 5560 5560 5558 5557 5556 5555 5553
5624 5620 5616 5611 5607 5604 5601 5599 5596 5593 5590 5588 5585 5583 5582 5580 5578 5577 5575 5574 5573 5572 5570 5569 5568 5567 5567 5567 5567 5568 5568 5567 5566 5564 5562 5560 5559 5557 5556 5554 5553 5551 5550